EW4458 Weather Reports


Display with metric or nautical units.
time (UTC)temp
F
wind
direction
speed
MPH
gust
MPH
rain 1hr
in
rain 24hr
in
rain mn
in
humidity
%
barometer
mb
20260507021120 62 28 0.0 0.0 0.00 0.04 0.04 87 1010.0
20260507020619 62 30 0.0 0.0 0.00 0.04 0.04 87 1010.0
20260507020114 62 44 0.0 0.0 0.00 0.04 0.04 87 1010.0
20260507015613 62 38 0.0 0.0 0.00 0.04 0.04 86 1010.2
20260507015110 63 43 0.0 0.0 0.00 0.04 0.04 86 1010.0
20260507014607 62 35 0.0 0.0 0.00 0.04 0.04 85 1010.4
20260507014102 63 29 0.0 0.0 0.00 0.04 0.04 85 1010.4
20260507013559 63 27 0.0 0.0 0.00 0.04 0.04 85 1010.6
20260507013056 62 31 0.0 0.0 0.00 0.04 0.04 84 1010.4
20260507012554 62 31 0.0 0.0 0.00 0.04 0.04 84 1010.1
20260507012049 63 31 0.0 0.0 0.00 0.04 0.04 83 1010.1
20260507011547 63 30 0.0 0.0 0.00 0.04 0.04 84 1010.2
20260507011038 64 28 0.0 0.0 0.00 0.04 0.04 83 1010.0
20260507010538 64 27 0.0 0.0 0.00 0.04 0.04 83 1010.1
20260507010034 64 37 0.0 0.0 0.00 0.04 0.04 83 1009.9
20260507005532 64 49 0.0 0.0 0.00 0.04 0.04 82 1010.1
20260507005028 65 47 0.0 0.0 0.00 0.04 0.04 82 1010.1
20260507004525 65 48 0.0 0.0 0.00 0.04 0.04 82 1010.0
20260507004023 65 47 0.0 0.0 0.00 0.04 0.04 82 1009.9
20260507003518 66 67 0.0 0.0 0.00 0.04 0.04 81 1010.0
20260507003013 67 57 0.0 0.0 0.00 0.04 0.04 81 1009.8
20260507002510 67 35 0.0 0.0 0.00 0.04 0.04 80 1009.9
20260507002006 67 33 0.0 0.0 0.00 0.04 0.04 79 1009.6
20260507001503 68 35 0.0 0.0 0.00 0.04 0.04 79 1009.7
20260507001000 68 42 0.0 0.0 0.00 0.04 0.04 78 1009.7
20260507000456 68 54 0.0 0.0 0.00 0.04 0.04 78 1009.7
20260506235952 69 0 0.0 0.0 0.00 0.04 0.04 78 1009.6
20260506235450 69 272 2.0 3.0 0.00 0.04 0.04 77 1009.6
20260506234945 69 32 0.0 0.0 0.00 0.04 0.04 77 1009.6
20260506234443 69 26 0.0 0.0 0.00 0.04 0.04 77 1009.3
20260506233940 69 341 1.0 2.0 0.00 0.04 0.04 76 1009.3
20260506233436 69 307 3.0 5.0 0.00 0.04 0.04 76 1009.4
20260506232933 70 170 2.0 3.0 0.00 0.04 0.04 76 1009.5
20260506232429 70 17 3.0 3.0 0.00 0.04 0.04 76 1009.5
20260506231925 70 330 3.0 3.0 0.00 0.04 0.04 75 1009.4
20260506231423 70 289 3.0 3.0 0.00 0.04 0.04 75 1009.3
20260506230920 70 309 3.0 3.0 0.00 0.04 0.04 75 1009.1
20260506230416 70 239 3.0 3.0 0.00 0.04 0.04 75 1009.2
20260506225913 70 231 7.0 9.0 0.00 0.04 0.04 75 1009.5
20260506225411 70 332 4.0 7.0 0.00 0.04 0.04 75 1009.3
20260506224907 70 286 3.0 3.0 0.00 0.04 0.04 74 1009.3
20260506224405 70 273 5.0 7.0 0.00 0.04 0.04 74 1009.5
20260506223900 70 278 5.0 9.0 0.00 0.04 0.04 74 1009.5
20260506223356 70 339 3.0 3.0 0.00 0.04 0.04 74 1009.2
20260506222853 71 293 5.0 7.0 0.00 0.04 0.04 74 1009.5
20260506222349 71 234 5.0 5.0 0.00 0.04 0.04 74 1009.4
20260506221847 71 275 5.0 7.0 0.00 0.04 0.04 74 1009.2
20260506221344 71 215 3.0 3.0 0.00 0.04 0.04 74 1009.5
20260506220842 71 248 7.0 10.0 0.00 0.04 0.04 73 1009.4
20260506220337 71 297 5.0 7.0 0.00 0.04 0.04 73 1009.4
20260506215834 71 272 9.0 12.0 0.00 0.04 0.04 73 1009.4
20260506215330 71 229 8.0 10.0 0.00 0.04 0.04 73 1009.4
20260506214826 71 310 5.0 9.0 0.00 0.04 0.04 73 1009.3
20260506214323 71 357 3.0 5.0 0.00 0.04 0.04 73 1008.9
20260506213821 71 290 4.0 5.0 0.00 0.04 0.04 74 1009.1
20260506213318 71 274 6.0 7.0 0.00 0.04 0.04 74 1009.1
20260506212815 71 238 5.0 5.0 0.00 0.04 0.04 74 1009.2
20260506212311 70 16 7.0 9.0 0.00 0.04 0.04 74 1009.2
20260506211806 71 302 8.0 10.0 0.00 0.04 0.04 73 1009.1
20260506211302 71 251 4.0 5.0 0.00 0.04 0.04 74 1009.2
20260506210800 71 249 9.0 10.0 0.00 0.04 0.04 73 1009.0
20260506210256 71 236 9.0 12.0 0.00 0.04 0.04 73 1009.0
20260506205754 71 296 4.0 7.0 0.00 0.04 0.04 73 1009.0
20260506205249 71 297 4.0 5.0 0.00 0.04 0.04 73 1008.8
20260506204746 70 238 5.0 7.0 0.00 0.04 0.04 74 1008.9
20260506204244 70 204 8.0 10.0 0.00 0.04 0.04 74 1008.9
20260506203742 70 257 9.0 10.0 0.00 0.04 0.04 74 1009.0
20260506203239 70 235 5.0 9.0 0.00 0.04 0.04 74 1008.9
20260506202736 70 210 7.0 9.0 0.00 0.04 0.04 73 1008.7
20260506202232 70 272 8.0 10.0 0.00 0.04 0.04 73 1008.9
20260506201729 70 290 5.0 7.0 0.00 0.04 0.04 74 1009.0
20260506201226 70 283 8.0 10.0 0.00 0.04 0.04 73 1008.9
20260506200723 70 242 8.0 9.0 0.00 0.04 0.04 73 1009.1
20260506200220 70 226 10.0 12.0 0.00 0.04 0.04 73 1009.0
20260506195716 70 260 3.0 5.0 0.00 0.04 0.04 73 1009.1
20260506195213 70 230 8.0 10.0 0.00 0.04 0.04 73 1009.3
20260506194710 70 215 11.0 19.0 0.00 0.04 0.04 73 1009.1
20260506194206 70 342 3.0 5.0 0.00 0.04 0.04 73 1009.1
20260506193704 70 217 10.0 12.0 0.00 0.04 0.04 73 1009.2
20260506193201 70 156 4.0 5.0 0.00 0.04 0.04 73 1009.5
20260506192658 70 268 11.0 14.0 0.00 0.04 0.04 73 1009.3
20260506192154 70 270 5.0 9.0 0.00 0.04 0.04 73 1009.5
20260506191651 71 285 8.0 10.0 0.00 0.04 0.04 72 1009.6
20260506191147 71 288 6.0 7.0 0.00 0.04 0.04 72 1009.3
20260506190644 70 206 11.0 15.0 0.00 0.04 0.04 72 1009.2
20260506190141 70 214 17.0 24.0 0.00 0.04 0.04 73 1009.4
20260506185638 70 243 8.0 12.0 0.00 0.04 0.04 73 1009.5
20260506185134 70 224 15.0 21.0 0.00 0.04 0.04 73 1009.8
20260506184632 70 228 11.0 15.0 0.00 0.04 0.04 74 1009.9
20260506184129 69 222 5.0 12.0 0.00 0.04 0.04 74 1010.1
20260506183625 69 276 10.0 14.0 0.00 0.04 0.04 74 1010.0
20260506183121 69 248 10.0 14.0 0.00 0.04 0.04 74 1010.3
20260506182619 69 227 15.0 19.0 0.00 0.04 0.04 75 1010.2
20260506182116 69 250 16.0 21.0 0.00 0.04 0.04 75 1010.4
20260506181614 69 203 7.0 9.0 0.00 0.04 0.04 77 1010.3
20260506181111 69 300 8.0 12.0 0.00 0.04 0.04 77 1010.2
20260506180608 68 245 13.0 19.0 0.00 0.04 0.04 77 1010.5
20260506180104 68 242 10.0 12.0 0.00 0.04 0.04 78 1010.6
20260506175600 68 270 12.0 14.0 0.00 0.04 0.04 78 1010.6
20260506175056 68 277 14.0 17.0 0.00 0.04 0.04 79 1010.5
20260506174556 68 249 17.0 22.0 0.00 0.04 0.04 78 1010.8
20260506174051 67 297 6.0 7.0 0.00 0.04 0.04 80 1010.5
20260506173549 67 295 7.0 14.0 0.00 0.04 0.04 81 1010.6
20260506173046 67 254 7.0 10.0 0.00 0.04 0.04 81 1010.7
20260506172543 66 258 6.0 9.0 0.00 0.04 0.04 83 1010.3
20260506172034 66 253 7.0 7.0 0.00 0.04 0.04 83 1010.6
20260506171531 66 148 9.0 12.0 0.00 0.04 0.04 83 1010.9
20260506171028 66 316 5.0 9.0 0.00 0.04 0.04 84 1010.6
20260506170526 66 216 5.0 5.0 0.00 0.04 0.04 86 1010.9
20260506170023 65 219 10.0 12.0 0.00 0.04 0.04 86 1011.0
20260506165522 66 222 13.0 15.0 0.00 0.04 0.04 85 1010.8
20260506165017 66 216 8.0 10.0 0.00 0.04 0.04 86 1010.9
20260506164514 65 234 3.0 5.0 0.00 0.04 0.04 87 1010.9
20260506164012 65 210 12.0 15.0 0.07 0.04 0.04 86 1010.9
20260506163507 65 230 7.0 9.0 0.07 0.04 0.04 86 1010.9
20260506163003 65 199 15.0 24.0 0.05 0.03 0.03 85 1011.2
20260506162500 65 194 10.0 15.0 0.05 0.03 0.03 85 1011.3
20260506161951 65 243 11.0 14.0 0.07 0.02 0.02 84 1011.3
20260506161449 66 226 14.0 21.0 0.07 0.02 0.02 83 1011.4
20260506160946 65 224 9.0 10.0 0.07 0.02 0.02 83 1011.6
20260506160444 66 207 5.0 7.0 0.07 0.01 0.01 82 1011.6
20260506155941 66 256 6.0 9.0 0.07 0.01 0.01 81 1012.0
20260506155439 66 193 9.0 12.0 0.00 0.00 0.00 80 1012.1
20260506153610 67 208 8.0 10.0 0.00 0.00 0.00 77 1012.0
20260506153108 67 277 5.0 7.0 0.00 0.00 0.00 76 1012.2
20260506152604 67 244 4.0 5.0 0.00 0.00 0.00 75 1012.0
20260506152102 68 280 8.0 12.0 0.00 0.00 0.00 74 1012.1
20260506151600 68 214 14.0 19.0 0.00 0.00 0.00 73 1012.1
20260506151057 68 257 9.0 10.0 0.00 0.00 0.00 72 1012.3
20260506150554 68 245 10.0 15.0 0.00 0.00 0.00 72 1012.1
20260506150050 68 304 6.0 7.0 0.00 0.00 0.00 72 1012.0
20260506145547 69 223 8.0 14.0 0.00 0.00 0.00 70 1011.9
20260506145045 69 245 9.0 12.0 0.00 0.00 0.00 69 1011.8
20260506144541 69 263 5.0 7.0 0.00 0.00 0.00 69 1012.1
20260506144039 69 209 12.0 15.0 0.00 0.00 0.00 68 1012.0
20260506143536 69 232 6.0 10.0 0.00 0.00 0.00 67 1012.0
20260506143035 69 217 10.0 12.0 0.00 0.00 0.00 66 1011.9
20260506142532 69 191 7.0 9.0 0.00 0.00 0.00 67 1012.3
20260506142030 69 252 8.0 12.0 0.00 0.00 0.00 66 1012.3
20260506141527 70 272 5.0 7.0 0.00 0.00 0.00 65 1012.1
20260506141026 70 251 9.0 10.0 0.00 0.00 0.00 64 1012.3
20260506140523 70 135 7.0 9.0 0.00 0.00 0.00 64 1012.1
20260506140020 70 253 8.0 9.0 0.00 0.00 0.00 64 1011.9
20260506135517 70 264 11.0 14.0 0.00 0.00 0.00 64 1012.0
20260506135013 70 180 6.0 9.0 0.00 0.00 0.00 64 1011.8
20260506134509 70 261 8.0 10.0 0.00 0.00 0.00 64 1011.8
20260506134006 70 287 4.0 5.0 0.00 0.00 0.00 64 1011.8
20260506133503 70 283 7.0 9.0 0.00 0.00 0.00 64 1011.7
20260506132959 70 242 9.0 10.0 0.00 0.00 0.00 64 1012.2
20260506132457 70 164 7.0 10.0 0.00 0.00 0.00 64 1011.8
20260506131954 70 206 3.0 3.0 0.00 0.00 0.00 65 1012.0
20260506131451 69 280 15.0 21.0 0.00 0.00 0.00 65 1012.0
20260506130947 69 222 6.0 9.0 0.00 0.00 0.00 66 1012.2
20260506130444 69 236 5.0 10.0 0.00 0.00 0.00 66 1011.9
20260506125942 68 226 9.0 10.0 0.00 0.00 0.00 67 1012.0
20260506125440 68 238 8.0 12.0 0.00 0.00 0.00 67 1012.0
20260506124938 69 243 16.0 22.0 0.00 0.00 0.00 67 1012.0
20260506124435 69 287 3.0 3.0 0.00 0.00 0.00 68 1012.2
20260506123933 69 213 9.0 12.0 0.00 0.00 0.00 67 1012.4
20260506123431 68 249 6.0 7.0 0.00 0.00 0.00 69 1012.3
20260506122928 68 224 15.0 19.0 0.00 0.00 0.00 69 1012.5
20260506122425 68 198 10.0 12.0 0.00 0.00 0.00 69 1012.5
20260506121923 67 245 8.0 10.0 0.00 0.00 0.00 70 1012.3
20260506121420 67 251 8.0 9.0 0.00 0.00 0.00 70 1012.7
20260506120917 67 282 9.0 14.0 0.00 0.00 0.00 70 1012.6
20260506120414 67 235 3.0 5.0 0.00 0.00 0.00 70 1012.4
20260506115911 67 224 5.0 7.0 0.00 0.00 0.00 69 1012.6
20260506115409 67 209 8.0 12.0 0.00 0.00 0.00 69 1012.4
20260506114908 67 348 9.0 15.0 0.00 0.00 0.00 69 1012.6
20260506114405 67 229 10.0 10.0 0.00 0.00 0.00 69 1012.2
20260506113904 66 213 7.0 15.0 0.00 0.00 0.00 70 1012.4
20260506113401 67 225 7.0 9.0 0.00 0.00 0.00 69 1012.2
20260506112857 66 296 6.0 9.0 0.00 0.00 0.00 70 1012.2
20260506112354 65 248 4.0 7.0 0.00 0.00 0.00 71 1012.2
20260506111851 65 208 9.0 12.0 0.00 0.00 0.00 71 1012.2
20260506111350 65 231 3.0 3.0 0.00 0.00 0.00 71 1012.2
20260506110847 65 297 4.0 5.0 0.00 0.00 0.00 71 1012.1
20260506110344 66 253 7.0 10.0 0.00 0.00 0.00 71 1012.1
20260506105841 66 328 8.0 12.0 0.00 0.00 0.00 71 1012.1
20260506105337 66 277 4.0 7.0 0.00 0.00 0.00 70 1012.0
20260506104835 66 168 10.0 12.0 0.00 0.00 0.00 70 1012.1
20260506104332 65 257 9.0 10.0 0.00 0.00 0.00 71 1011.9
20260506103830 65 210 9.0 12.0 0.00 0.00 0.00 71 1011.9
20260506103327 65 218 4.0 7.0 0.00 0.00 0.00 71 1011.8
20260506102824 65 278 12.0 15.0 0.00 0.00 0.00 72 1011.6
20260506102322 64 197 11.0 14.0 0.00 0.00 0.00 72 1011.8
20260506101819 64 242 3.0 5.0 0.00 0.00 0.00 72 1012.1
20260506101315 64 235 9.0 12.0 0.00 0.00 0.00 72 1012.1
20260506100813 64 253 3.0 5.0 0.00 0.00 0.00 72 1011.8
20260506100311 65 242 6.0 7.0 0.00 0.00 0.00 72 1012.0
20260506095809 65 216 11.0 14.0 0.00 0.00 0.00 72 1012.0
20260506095306 65 194 7.0 9.0 0.00 0.00 0.00 72 1012.2
20260506094803 65 226 3.0 5.0 0.00 0.00 0.00 72 1012.2
20260506094301 65 121 3.0 3.0 0.00 0.00 0.00 72 1012.0
20260506093759 65 233 5.0 7.0 0.00 0.00 0.00 72 1012.1
20260506093256 65 256 3.0 5.0 0.00 0.00 0.00 72 1012.1
20260506092754 65 279 6.0 7.0 0.00 0.00 0.00 72 1011.9
20260506092252 65 295 6.0 12.0 0.00 0.00 0.00 73 1011.6
20260506091748 65 207 10.0 15.0 0.00 0.00 0.00 73 1011.7
20260506091246 65 340 7.0 10.0 0.00 0.00 0.00 72 1012.0
20260506090744 65 231 5.0 7.0 0.00 0.00 0.00 72 1011.9
20260506090241 65 279 9.0 12.0 0.00 0.00 0.00 73 1011.8
20260506085737 65 234 7.0 12.0 0.00 0.00 0.00 72 1011.9
20260506085234 65 253 10.0 12.0 0.00 0.00 0.00 73 1011.8
20260506084730 65 259 8.0 10.0 0.00 0.00 0.00 72 1011.9
20260506084226 65 203 9.0 12.0 0.00 0.00 0.00 72 1011.8
20260506083724 65 215 11.0 17.0 0.00 0.00 0.00 73 1012.0
20260506083222 65 211 8.0 12.0 0.00 0.00 0.00 73 1012.2
20260506082719 65 242 6.0 7.0 0.00 0.00 0.00 73 1012.1
20260506082214 65 309 6.0 9.0 0.00 0.00 0.00 73 1012.0
20260506081712 65 229 5.0 7.0 0.00 0.00 0.00 73 1012.2
20260506081209 66 214 5.0 5.0 0.00 0.00 0.00 73 1012.2
20260506080707 66 347 8.0 10.0 0.00 0.00 0.00 73 1012.3
20260506080203 66 277 8.0 10.0 0.00 0.00 0.00 73 1012.2
20260506073148 66 175 10.0 12.0 0.00 0.00 0.00 74 1012.2
20260506072644 66 200 3.0 5.0 0.00 0.00 0.00 74 1012.1
20260506072142 66 301 9.0 10.0 0.00 0.00 0.00 74 1012.2
20260506071639 66 261 8.0 15.0 0.00 0.00 0.00 74 1012.1
20260506071137 66 235 9.0 10.0 0.00 0.00 0.00 74 1012.2
20260506070634 66 212 2.0 3.0 0.00 0.00 0.00 74 1012.3
20260506070131 66 228 3.0 7.0 0.00 0.00 0.00 74 1012.3
20260506062108 67 225 6.0 7.0 0.00 0.00 0.00 73 1012.5
20260506061604 67 163 7.0 9.0 0.00 0.00 0.00 73 1012.5
20260506061102 67 213 5.0 9.0 0.00 0.00 0.00 73 1012.6
20260506060600 67 277 13.0 19.0 0.00 0.00 0.00 73 1012.7
20260506051028 68 207 11.0 14.0 0.00 0.00 0.00 71 1012.7
20260506050526 69 251 11.0 14.0 0.00 0.00 0.00 71 1012.8
20260506045017 69 231 8.0 10.0 0.00 0.00 0.00 71 1012.9
20260506044515 69 215 11.0 14.0 0.00 0.00 0.00 71 1012.9
20260506044011 69 196 7.0 9.0 0.00 0.00 0.00 71 1012.7
20260506043508 69 217 17.0 24.0 0.00 0.00 0.00 71 1013.0
20260506043007 69 213 8.0 10.0 0.00 0.00 0.00 70 1012.9
20260506042506 69 295 10.0 14.0 0.00 0.00 0.00 70 1012.7
20260506042003 69 216 12.0 15.0 0.00 0.00 0.00 70 1012.8
20260506041501 69 223 16.0 19.0 0.00 0.00 0.00 70 1012.9
20260506040958 70 190 11.0 15.0 0.00 0.00 0.00 70 1012.9
20260506040456 70 244 10.0 15.0 0.00 0.00 0.00 69 1012.7
20260506035951 70 254 9.0 10.0 0.00 0.00 0.00 69 1012.7
20260506035449 70 196 11.0 17.0 0.00 0.00 0.00 69 1012.7
20260506034945 70 171 10.0 14.0 0.00 0.00 0.00 69 1012.6
20260506034443 70 229 9.0 12.0 0.00 0.00 0.00 69 1012.7
20260506033940 70 197 11.0 14.0 0.00 0.00 0.00 69 1012.6
20260506033437 70 209 6.0 9.0 0.00 0.00 0.00 69 1012.6
20260506032934 70 219 6.0 7.0 0.00 0.00 0.00 69 1012.6
20260506032431 70 245 21.0 27.0 0.00 0.00 0.00 68 1012.6
20260506031927 70 255 12.0 15.0 0.00 0.00 0.00 68 1012.8
20260506031425 70 281 4.0 5.0 0.00 0.00 0.00 68 1012.4
20260506030922 70 228 7.0 10.0 0.00 0.00 0.00 68 1012.6
20260506030420 70 210 7.0 10.0 0.00 0.00 0.00 68 1012.8
20260506025917 71 251 15.0 24.0 0.00 0.00 0.00 68 1012.6
20260506025414 70 286 9.0 15.0 0.00 0.00 0.00 68 1012.8
20260506024910 70 209 5.0 7.0 0.00 0.00 0.00 68 1012.7
20260506024408 71 241 7.0 10.0 0.00 0.00 0.00 68 1013.0
20260506023903 71 231 10.0 12.0 0.00 0.00 0.00 67 1012.8
20260506023401 71 286 5.0 9.0 0.00 0.00 0.00 67 1012.8
20260506022857 71 245 7.0 9.0 0.00 0.00 0.00 67 1013.0
20260506022355 71 187 6.0 9.0 0.00 0.00 0.00 66 1012.9
20260506021852 71 219 5.0 9.0 0.00 0.00 0.00 66 1013.0
20260506021349 71 227 9.0 14.0 0.00 0.00 0.00 65 1012.7